period_start,C,m1,H,J0,J1,J2,J3,J4,J5,JA,JB,JC,JD,JJ,JK,JN,#
2014-06-09 00:02:46,0.03,0.73,0.00,31.48,35.78,37.95,9.29,41.00,1018.09,2001.01,3133.16,3046.01,3302.26,499.95,483.53,18.52,0000 0000 0000 0000 000000
2014-06-09 00:07:48,0.01,0.73,0.00,31.51,35.80,37.97,9.15,40.85,1018.08,2001.00,3132.80,3045.84,3301.98,499.31,482.94,18.56,0000 0000 0000 0000 000000
2014-06-09 00:12:49,0.05,0.74,0.00,31.54,35.82,38.00,9.37,40.98,1018.08,2001.00,3132.11,3045.10,3301.39,500.37,483.64,18.60,0000 0000 0000 0000 000000
2014-06-09 00:17:50,0.01,0.74,0.00,31.56,35.85,38.02,9.30,40.93,1018.08,2000.99,3131.88,3044.98,3301.00,499.71,483.26,18.64,0000 0000 0000 0000 000000
2014-06-09 00:22:51,0.04,0.74,0.00,31.60,35.88,38.05,9.34,40.80,1018.08,2000.94,3131.16,3044.44,3300.53,499.88,483.08,18.68,0000 0000 0000 0000 000000
2014-06-09 00:27:52,0.01,0.74,0.00,31.62,35.90,38.07,9.35,40.83,1018.07,2000.85,3130.70,3044.02,3300.03,499.93,483.26,18.73,0000 0000 0000 0000 000000
2014-06-09 00:32:53,-0.01,0.74,0.00,31.65,35.93,38.10,9.30,40.72,1018.01,2000.49,3130.03,3043.70,3299.62,499.70,483.11,18.77,0000 0000 0000 0000 000000
2014-06-09 00:37:54,0.01,0.74,0.00,31.69,35.95,38.12,9.22,40.59,1017.97,2000.14,3129.59,3043.06,3299.02,499.45,482.79,18.81,0000 0000 0000 0000 000000
2014-06-09 00:42:55,0.01,0.74,0.00,31.71,35.98,38.15,9.42,40.81,1017.92,2000.04,3129.02,3042.96,3298.72,500.15,483.32,18.85,0000 0000 0000 0000 000000
2014-06-09 00:47:56,0.05,0.74,0.00,31.75,36.01,38.18,9.32,40.81,1017.69,2000.01,3128.58,3042.29,3298.06,500.01,482.90,18.89,0000 0000 0000 0000 000000
2014-06-09 00:52:57,0.02,0.74,0.00,31.77,36.03,38.20,9.24,40.90,1017.62,2000.00,3128.00,3041.97,3297.50,499.81,482.72,18.94,0000 0000 0000 0000 000000
2014-06-09 00:57:58,0.04,0.74,0.00,31.79,36.06,38.22,9.32,40.85,1017.61,1999.98,3127.48,3041.40,3297.01,499.95,482.99,18.98,0000 0000 0000 0000 000000
2014-06-09 01:02:59,0.01,0.74,0.00,31.82,36.09,38.25,9.28,40.90,1017.59,1999.95,3126.97,3041.01,3296.76,499.78,482.61,19.02,0000 0000 0000 0000 000000
2014-06-09 01:08:01,0.00,0.74,0.00,31.85,36.11,38.28,9.31,40.78,1017.59,1999.79,3126.62,3040.90,3296.10,500.44,483.12,19.06,0000 0000 0000 0000 000000
2014-06-09 01:13:02,-0.02,0.74,0.00,31.89,36.14,38.30,9.28,40.52,1017.59,1999.20,3126.10,3040.20,3295.80,500.40,483.08,19.10,0000 0000 0000 0000 000000
2014-06-09 01:18:03,0.01,0.74,0.00,31.91,36.17,38.33,9.34,40.67,1017.59,1999.05,3125.53,3040.00,3295.07,500.41,482.89,19.15,0000 0000 0000 0000 000000
2014-06-09 01:23:04,0.02,0.74,0.00,31.94,36.19,38.36,9.16,40.66,1017.59,1999.01,3124.99,3039.74,3294.87,499.54,482.26,19.19,0000 0000 0000 0000 000000
2014-06-09 01:28:04,0.05,0.75,0.00,31.96,36.21,38.38,9.31,40.70,1017.59,1999.00,3124.31,3039.06,3294.12,500.02,482.66,19.23,0000 0000 0000 0000 000000
2014-06-09 01:33:06,0.02,0.75,0.00,32.00,36.24,38.40,9.30,40.69,1017.59,1998.99,3123.99,3038.59,3293.73,499.88,482.62,19.27,0000 0000 0000 0000 000000
2014-06-09 01:38:06,0.02,0.75,0.00,32.02,36.27,38.42,9.30,40.67,1017.59,1998.94,3123.51,3038.04,3293.05,499.94,482.39,19.31,0000 0000 0000 0000 000000
2014-06-09 01:43:08,-0.01,0.75,0.00,32.06,36.29,38.45,9.26,40.69,1017.56,1998.79,3123.01,3037.94,3292.89,500.10,482.45,19.35,0000 0000 0000 0000 000000
2014-06-09 01:48:09,-0.01,0.75,0.00,32.09,36.32,38.48,9.26,40.60,1017.54,1998.28,3122.31,3037.22,3292.11,499.88,482.30,19.40,0000 0000 0000 0000 000000
2014-06-09 01:53:10,0.01,0.75,0.00,32.11,36.35,38.50,9.30,40.78,1017.51,1998.07,3121.86,3036.96,3291.80,499.93,482.21,19.44,0000 0000 0000 0000 000000
2014-06-09 01:58:11,0.04,0.75,0.00,32.15,36.38,38.52,9.29,40.66,1017.49,1998.00,3121.14,3036.36,3291.06,500.03,482.38,19.48,0000 0000 0000 0000 000000
2014-06-09 02:03:12,0.01,0.75,0.00,32.17,36.40,38.55,9.18,40.52,1017.40,1998.00,3120.83,3036.01,3290.82,499.58,481.76,19.52,0000 0000 0000 0000 000000
2014-06-09 02:08:13,0.04,0.75,0.00,32.21,36.43,38.58,9.41,40.56,1017.34,1998.00,3120.06,3035.70,3290.07,500.36,482.40,19.56,0000 0000 0000 0000 000000
2014-06-09 02:13:14,0.03,0.75,0.00,32.24,36.45,38.60,9.22,40.43,1017.31,1997.98,3119.46,3035.06,3289.76,499.83,481.90,19.61,0000 0000 0000 0000 000000
2014-06-09 02:18:15,0.01,0.76,0.00,32.26,36.48,38.63,9.38,40.75,1017.18,1997.74,3118.94,3034.40,3289.00,500.19,482.07,19.65,0000 0000 0000 0000 000000
2014-06-09 02:23:16,-0.01,0.76,0.00,32.30,36.50,38.66,9.37,40.79,1017.14,1997.23,3118.21,3034.00,3288.21,500.14,481.96,19.69,0000 0000 0000 0000 000000
2014-06-09 02:28:17,0.03,0.76,0.00,32.33,36.53,38.68,9.28,40.73,1017.14,1997.06,3117.57,3033.43,3287.91,499.91,481.53,19.73,0000 0000 0000 0000 000000
2014-06-09 02:33:18,0.02,0.76,0.00,32.37,36.56,38.71,9.18,40.75,1017.18,1997.00,3116.98,3032.97,3287.15,499.82,481.57,19.77,0000 0000 0000 0000 000000
2014-06-09 02:38:19,0.03,0.76,0.00,32.39,36.58,38.73,9.18,40.83,1017.13,1997.00,3116.26,3032.53,3286.91,499.34,481.01,19.82,0000 0000 0000 0000 000000
2014-06-09 02:43:21,0.03,0.76,0.00,32.42,36.61,38.76,9.29,40.71,1017.13,1996.98,3116.01,3032.04,3286.15,499.77,481.39,19.86,0000 0000 0000 0000 000000
2014-06-09 02:48:22,0.02,0.76,0.00,32.45,36.64,38.79,9.20,40.71,1017.12,1996.95,3115.39,3031.94,3285.93,500.03,481.61,19.90,0000 0000 0000 0000 000000
2014-06-09 02:53:23,0.02,0.76,0.00,32.48,36.66,38.82,9.28,40.69,1017.11,1996.78,3114.90,3031.18,3285.17,500.01,481.40,19.94,0000 0000 0000 0000 000000
2014-06-09 02:58:24,-0.01,0.76,0.00,32.52,36.69,38.84,9.23,40.72,1017.11,1996.51,3114.34,3030.99,3284.97,499.74,481.27,19.98,0000 0000 0000 0000 000000
2014-06-09 03:03:25,0.00,0.76,0.00,32.55,36.72,38.87,9.34,40.89,1017.11,1996.17,3113.82,3030.45,3284.31,500.26,481.58,20.03,0000 0000 0000 0000 000000
2014-06-09 03:08:27,0.02,0.76,0.00,32.57,36.74,38.90,9.30,40.99,1017.10,1996.06,3113.08,3030.01,3283.94,499.92,481.26,20.07,0000 0000 0000 0000 000000
2014-06-09 03:13:28,0.02,0.76,0.00,32.61,36.77,38.92,9.37,40.90,1017.10,1996.00,3112.82,3029.77,3283.25,500.09,481.44,20.11,0000 0000 0000 0000 000000
2014-06-09 03:18:29,0.03,0.77,0.00,32.63,36.80,38.96,9.20,40.76,1017.06,1996.00,3112.07,3029.07,3282.96,500.01,481.36,20.15,0000 0000 0000 0000 000000
2014-06-09 03:23:30,0.04,0.77,0.00,32.66,36.83,38.98,9.32,40.83,1016.91,1996.00,3111.39,3028.89,3282.35,500.58,481.68,20.19,0000 0000 0000 0000 000000
2014-06-09 03:28:31,0.02,0.77,0.00,32.69,36.85,39.01,9.27,40.88,1016.72,1995.98,3111.01,3028.18,3281.98,499.64,480.82,20.23,0000 0000 0000 0000 000000
2014-06-09 03:33:32,0.02,0.77,0.00,32.71,36.88,39.04,9.31,40.83,1016.64,1995.90,3110.56,3027.99,3281.33,500.13,480.93,20.28,0000 0000 0000 0000 000000
2014-06-09 03:38:33,-0.01,0.77,0.00,32.73,36.91,39.07,9.26,40.70,1016.64,1995.62,3109.96,3027.43,3280.94,500.18,480.93,20.32,0000 0000 0000 0000 000000
2014-06-09 03:43:34,0.02,0.77,0.00,32.76,36.94,39.10,9.31,40.75,1016.63,1995.32,3109.18,3027.01,3280.35,500.23,481.08,20.36,0000 0000 0000 0000 000000
2014-06-09 03:48:35,-0.01,0.77,0.00,32.78,36.97,39.12,9.21,40.80,1016.63,1995.07,3108.91,3026.74,3279.99,499.83,480.68,20.40,0000 0000 0000 0000 000000
2014-06-09 03:53:37,0.05,0.77,0.00,32.81,36.99,39.15,9.35,40.84,1016.62,1995.00,3108.11,3026.06,3279.37,500.26,481.03,20.44,0000 0000 0000 0000 000000
2014-06-09 03:58:38,0.03,0.77,0.00,32.83,37.02,39.18,9.22,40.62,1016.62,1995.00,3107.50,3025.74,3278.92,499.85,480.66,20.49,0000 0000 0000 0000 000000
2014-06-09 04:03:39,0.04,0.78,0.00,32.85,37.05,39.20,9.23,40.79,1016.62,1995.00,3106.99,3025.05,3278.18,499.95,480.73,20.53,0000 0000 0000 0000 000000
2014-06-09 04:08:40,0.02,0.78,0.00,32.87,37.08,39.23,9.30,40.68,1016.62,1994.97,3106.37,3024.90,3277.91,500.29,481.01,20.57,0000 0000 0000 0000 000000
2014-06-09 04:13:41,0.02,0.78,0.00,32.89,37.10,39.26,9.31,40.77,1016.62,1994.77,3105.89,3024.19,3277.16,499.98,480.67,20.61,0000 0000 0000 0000 000000
2014-06-09 04:18:42,-0.01,0.78,0.00,32.91,37.13,39.28,9.35,40.85,1016.62,1994.47,3105.09,3023.99,3276.87,500.18,480.87,20.65,0000 0000 0000 0000 000000
2014-06-09 04:23:43,0.01,0.78,0.00,32.93,37.15,39.31,9.33,40.96,1016.62,1994.21,3104.71,3023.53,3276.16,500.36,481.03,20.70,0000 0000 0000 0000 000000
2014-06-09 04:28:45,0.01,0.78,0.00,32.95,37.18,39.33,9.29,40.98,1016.62,1994.08,3103.99,3023.01,3275.89,500.16,480.74,20.74,0000 0000 0000 0000 000000
2014-06-09 04:33:46,0.04,0.78,0.00,32.97,37.20,39.36,9.29,41.15,1016.62,1994.02,3103.20,3022.67,3275.12,499.87,480.42,20.78,0000 0000 0000 0000 000000
2014-06-09 04:38:47,0.02,0.78,0.00,32.99,37.23,39.38,9.29,41.00,1016.61,1994.01,3102.97,3022.08,3274.95,500.31,480.67,20.82,0000 0000 0000 0000 000000
2014-06-09 04:43:48,0.04,0.78,0.00,33.02,37.25,39.40,9.23,40.98,1016.59,1994.00,3102.25,3021.86,3274.25,499.91,480.35,20.86,0000 0000 0000 0000 000000
2014-06-09 04:48:50,0.04,0.78,0.00,33.03,37.27,39.44,9.31,40.91,1016.46,1993.99,3101.64,3021.09,3273.86,500.03,480.41,20.91,0000 0000 0000 0000 000000
2014-06-09 04:53:51,0.01,0.78,0.00,33.05,37.29,39.46,9.35,41.01,1016.29,1993.94,3101.03,3020.95,3273.11,499.90,480.15,20.95,0000 0000 0000 0000 000000
2014-06-09 04:58:52,0.00,0.79,0.00,33.05,37.32,39.47,9.28,40.86,1016.20,1993.62,3100.58,3020.31,3272.83,500.04,479.98,20.99,0000 0000 0000 0000 000000
2014-06-09 05:03:54,-0.00,0.79,0.00,33.07,37.34,39.50,9.26,40.80,1016.16,1993.39,3100.01,3020.00,3272.13,500.11,480.19,21.03,0000 0000 0000 0000 000000
2014-06-09 05:08:55,0.02,0.79,0.00,33.09,37.36,39.52,9.29,40.83,1016.15,1993.26,3099.38,3019.73,3271.96,500.57,480.75,21.07,0000 0000 0000 0000 000000
2014-06-09 05:13:56,0.02,0.79,0.00,33.11,37.38,39.54,9.22,40.91,1016.14,1993.09,3098.92,3019.05,3271.31,500.17,480.20,21.12,0000 0000 0000 0000 000000
2014-06-09 05:18:57,0.01,0.79,0.00,33.12,37.40,39.57,9.28,41.02,1016.14,1993.07,3098.23,3018.98,3271.01,500.18,480.28,21.16,0000 0000 0000 0000 000000
2014-06-09 05:23:58,0.02,0.79,0.00,33.14,37.43,39.58,9.23,40.94,1016.14,1993.02,3097.90,3018.55,3270.72,499.68,479.79,21.20,0000 0000 0000 0000 000000
2014-06-09 05:28:59,0.03,0.79,0.00,33.15,37.44,39.60,9.27,40.93,1016.13,1993.00,3097.10,3018.01,3270.04,499.95,479.94,21.24,0000 0000 0000 0000 000000
2014-06-09 05:34:00,0.02,0.79,0.00,33.15,37.46,39.63,9.25,40.89,1016.13,1993.00,3096.86,3017.79,3269.58,500.15,480.35,21.28,0000 0000 0000 0000 000000
2014-06-09 05:39:01,0.04,0.79,0.00,33.17,37.49,39.64,9.28,40.89,1016.13,1993.00,3096.08,3017.09,3269.02,500.12,480.09,21.33,0000 0000 0000 0000 000000
2014-06-09 05:44:02,0.02,0.79,0.00,33.16,37.50,39.66,9.34,41.03,1016.14,1992.96,3095.57,3016.86,3268.57,500.59,480.67,21.37,0000 0000 0000 0000 000000
2014-06-09 05:49:03,0.07,0.80,0.00,33.06,37.53,39.70,9.31,41.16,1016.13,1992.89,3094.44,3016.04,3267.70,500.44,480.43,21.41,0000 0000 0000 0000 000000
2014-06-09 05:54:04,0.00,0.80,0.00,32.92,37.54,39.73,9.21,41.01,1016.13,1992.65,3093.76,3015.59,3267.04,500.04,480.35,21.45,0000 0000 0000 0000 000000
2014-06-09 05:59:05,0.03,0.80,0.00,32.77,37.55,39.77,9.31,41.14,1016.13,1992.63,3093.04,3015.04,3266.94,500.09,480.71,21.49,0000 0000 0000 0000 000000
2014-06-09 06:04:06,0.00,0.80,0.00,32.60,37.55,39.79,9.30,41.14,1016.00,1992.53,3092.77,3014.99,3266.38,500.40,481.26,21.53,0000 0000 0000 0000 000000
2014-06-09 06:09:06,0.03,0.80,0.00,32.41,37.54,39.83,9.32,41.27,1015.98,1992.44,3092.10,3014.84,3266.02,500.15,481.24,21.58,0000 0000 0000 0000 000000
2014-06-09 06:14:07,0.04,0.80,0.00,32.22,37.53,39.92,9.28,41.63,1016.13,1992.50,3091.85,3014.17,3265.91,499.67,481.16,21.62,0000 0000 0000 0000 000000
2014-06-09 06:19:08,0.02,0.80,0.00,31.96,37.50,39.95,9.35,41.85,1016.26,1992.59,3091.46,3014.04,3265.55,499.61,481.73,21.66,0000 0000 0000 0000 000000
2014-06-09 06:24:09,0.05,0.80,0.00,31.62,37.47,40.01,9.43,42.19,1016.50,1992.86,3091.02,3014.00,3265.11,500.12,482.58,21.70,0000 0000 0000 0000 000000
2014-06-09 06:29:11,0.01,0.81,0.00,31.27,37.41,39.98,9.37,41.91,1016.17,1992.97,3090.59,3014.00,3265.00,499.52,482.44,21.74,0000 0000 0000 0000 000000
2014-06-09 06:34:12,0.00,0.81,0.00,31.10,37.35,39.87,9.34,41.83,1016.13,1993.00,3090.07,3014.00,3265.01,500.05,483.48,21.79,0000 0000 0000 0000 000000
2014-06-09 06:39:13,0.02,0.81,0.00,31.01,37.28,39.74,9.39,41.84,1015.99,1993.15,3090.00,3014.01,3265.02,499.92,483.38,21.83,0000 0000 0000 0000 000000
2014-06-09 06:44:14,0.07,0.81,0.00,30.91,37.20,39.59,9.37,41.54,1015.65,1993.83,3090.00,3014.10,3265.28,499.84,483.04,21.87,0000 0000 0000 0000 000000
2014-06-09 06:49:16,-0.01,0.81,0.00,30.80,37.12,39.38,9.43,41.47,1015.65,1993.99,3089.98,3014.48,3265.78,500.03,483.54,21.91,0000 0000 0000 0000 000000
2014-06-09 06:54:16,0.03,0.81,0.00,30.67,37.03,39.27,9.45,41.68,1015.65,1994.22,3089.82,3014.73,3265.89,499.88,483.50,21.95,0000 0000 0000 0000 000000
2014-06-09 06:59:18,0.08,0.81,0.00,30.53,36.94,39.07,9.37,41.75,1015.66,1994.88,3089.24,3014.88,3265.93,499.98,483.80,21.99,0000 0000 0000 0000 000000
2014-06-09 07:04:19,0.01,0.81,0.00,30.40,36.84,38.99,9.38,41.71,1015.70,1995.00,3089.00,3014.95,3265.97,499.91,484.04,22.04,0000 0000 0000 0000 000000
2014-06-09 07:09:20,0.08,0.82,0.00,30.27,36.75,38.88,9.43,41.76,1015.84,1995.53,3088.99,3014.99,3265.99,499.81,484.22,22.08,0000 0000 0000 0000 000000
2014-06-09 07:14:21,0.02,0.82,0.00,30.22,36.64,38.78,9.44,41.57,1015.67,1995.98,3088.99,3015.06,3266.11,500.15,484.58,22.12,0000 0000 0000 0000 000000
2014-06-09 07:19:22,0.02,0.82,0.00,30.22,36.54,38.64,9.33,41.43,1015.65,1996.23,3088.94,3015.45,3266.56,499.40,483.95,22.16,0000 0000 0000 0000 000000
2014-06-09 07:24:23,0.05,0.82,0.00,30.22,36.44,38.51,9.43,41.68,1015.65,1996.92,3088.99,3015.96,3266.98,499.83,484.52,22.20,0000 0000 0000 0000 000000
2014-06-09 07:29:24,0.02,0.82,0.00,30.25,36.35,38.33,9.36,41.53,1015.69,1997.15,3088.99,3016.01,3267.02,499.91,484.17,22.25,0000 0000 0000 0000 000000
2014-06-09 07:34:25,0.05,0.83,0.00,30.30,36.26,38.23,9.48,41.55,1015.70,1997.84,3088.99,3016.41,3267.60,500.37,484.72,22.29,0000 0000 0000 0000 000000
2014-06-09 07:39:26,-0.00,0.83,0.00,30.35,36.17,38.15,9.42,41.58,1015.66,1998.03,3088.99,3016.92,3267.97,500.22,484.34,22.33,0000 0000 0000 0000 000000
2014-06-09 07:44:28,0.08,0.83,0.00,30.42,36.10,38.00,9.53,41.51,1015.64,1998.62,3088.99,3016.99,3268.00,500.61,484.67,22.37,0000 0000 0000 0000 000000
2014-06-09 07:49:29,0.02,0.83,0.00,30.49,36.03,37.96,9.33,41.40,1015.64,1998.97,3088.99,3017.00,3268.03,499.93,484.08,22.41,0000 0000 0000 0000 000000
2014-06-09 07:54:30,0.00,0.83,0.00,30.54,35.96,37.98,9.27,41.52,1015.64,1999.06,3088.99,3017.11,3268.34,499.95,483.90,22.46,0000 0000 0000 0000 000000
2014-06-09 07:59:31,0.06,0.83,0.00,30.60,35.90,38.05,9.38,41.66,1015.65,1999.62,3088.91,3017.34,3268.71,500.18,484.00,22.50,0000 0000 0000 0000 000000
2014-06-09 08:04:32,0.07,0.83,0.00,30.67,35.85,38.04,9.42,41.46,1015.65,1999.98,3087.71,3017.05,3268.19,500.30,483.99,22.54,0000 0000 0000 0000 000000
2014-06-09 08:09:33,0.04,0.84,0.00,30.73,35.81,38.01,9.34,41.42,1015.68,2000.10,3086.72,3016.89,3267.97,499.82,483.51,22.58,0000 0000 0000 0000 000000
2014-06-09 08:14:35,0.12,0.84,0.00,30.78,35.77,37.95,9.20,41.22,1015.66,2000.75,3085.97,3016.30,3267.61,499.48,483.05,22.62,0000 0000 0000 0000 000000
2014-06-09 08:19:36,0.04,0.84,0.00,30.82,35.74,37.84,9.40,41.38,1015.66,2000.98,3085.18,3016.02,3267.07,500.18,483.66,22.67,0000 0000 0000 0000 000000
2014-06-09 08:24:37,0.00,0.84,0.00,30.86,35.71,37.80,9.33,41.29,1015.85,2000.99,3084.93,3016.00,3267.00,499.86,483.62,22.71,0000 0000 0000 0000 000000
2014-06-09 08:29:38,0.03,0.85,0.00,30.89,35.69,37.78,9.30,41.26,1016.20,2001.09,3084.19,3015.99,3266.99,499.95,483.68,22.75,0000 0000 0000 0000 000000
2014-06-09 08:34:39,0.06,0.85,0.00,30.92,35.66,37.76,9.38,41.38,1016.79,2001.50,3084.00,3015.97,3266.97,500.09,483.96,22.79,0000 0000 0000 0000 000000
2014-06-09 08:39:41,0.02,0.85,0.00,30.94,35.65,37.75,9.42,41.38,1017.06,2001.83,3083.99,3015.86,3266.90,500.26,484.19,22.83,0000 0000 0000 0000 000000
2014-06-09 08:44:42,0.04,0.85,0.00,30.95,35.63,37.75,9.36,41.16,1016.65,2001.96,3083.59,3015.53,3266.72,499.89,483.65,22.88,0000 0000 0000 0000 000000
2014-06-09 08:49:43,0.03,0.85,0.00,30.96,35.62,37.75,9.43,41.09,1016.41,2001.99,3083.07,3015.18,3266.25,500.60,484.22,22.92,0000 0000 0000 0000 000000
2014-06-09 08:54:44,0.00,0.85,0.00,31.00,35.60,37.75,9.31,40.98,1016.65,2001.99,3083.00,3015.07,3266.11,500.05,483.79,22.96,0000 0000 0000 0000 000000
2014-06-09 08:59:44,0.00,0.85,0.00,31.02,35.60,37.76,9.34,41.07,1016.96,2001.99,3082.99,3015.00,3266.03,499.90,483.63,23.00,0000 0000 0000 0000 000000
2014-06-09 09:04:46,0.00,0.85,0.00,31.04,35.60,37.75,9.38,41.27,1017.10,2001.99,3082.94,3015.00,3266.00,500.19,483.88,23.04,0000 0000 0000 0000 000000
2014-06-09 09:09:47,0.01,0.85,0.00,31.05,35.59,37.75,9.22,40.95,1017.14,2002.04,3082.64,3015.00,3266.00,499.39,483.18,23.08,0000 0000 0000 0000 000000
2014-06-09 09:14:48,0.01,0.85,0.00,31.05,35.58,37.77,9.33,40.83,1017.16,2002.05,3082.19,3014.98,3265.99,500.11,483.84,23.13,0000 0000 0000 0000 000000
2014-06-09 09:19:50,0.00,0.85,0.00,31.05,35.58,37.76,9.27,40.73,1017.52,2002.05,3082.01,3014.90,3265.90,499.78,483.90,23.17,0000 0000 0000 0000 000000
2014-06-09 09:24:51,0.02,0.86,0.00,31.05,35.58,37.77,9.40,40.73,1017.59,2002.12,3081.98,3014.70,3265.80,500.20,484.24,23.21,0000 0000 0000 0000 000000
2014-06-09 09:29:52,0.03,0.86,0.00,31.05,35.58,37.78,9.33,40.64,1017.59,2002.12,3081.61,3014.20,3265.25,500.01,484.15,23.25,0000 0000 0000 0000 000000
2014-06-09 09:34:53,0.01,0.86,0.00,31.06,35.58,37.79,9.37,40.70,1017.61,2002.18,3081.07,3014.01,3265.01,499.82,483.73,23.29,0000 0000 0000 0000 000000
2014-06-09 09:39:55,0.00,0.86,0.00,31.07,35.59,37.80,9.27,40.52,1017.59,2002.25,3081.01,3014.00,3265.00,499.77,483.76,23.34,0000 0000 0000 0000 000000
2014-06-09 09:44:55,0.01,0.86,0.00,31.07,35.60,37.81,9.31,40.60,1017.59,2002.30,3080.96,3013.98,3264.98,499.84,483.79,23.38,0000 0000 0000 0000 000000
2014-06-09 09:49:57,0.01,0.86,0.00,31.07,35.60,37.81,9.25,40.63,1017.58,2002.34,3080.74,3013.94,3264.92,499.69,483.65,23.42,0000 0000 0000 0000 000000
2014-06-09 09:54:58,0.03,0.86,0.00,31.07,35.60,37.82,9.29,40.55,1017.53,2002.34,3080.17,3013.61,3264.50,499.84,483.86,23.46,0000 0000 0000 0000 000000
2014-06-09 09:59:59,0.01,0.86,0.00,31.07,35.60,37.82,9.35,40.50,1017.38,2002.19,3080.00,3013.07,3264.04,500.00,483.81,23.50,0000 0000 0000 0000 000000
2014-06-09 10:05:00,0.03,0.86,0.00,31.07,35.60,37.82,9.30,40.49,1017.14,2002.40,3079.99,3013.01,3264.00,499.94,483.74,23.55,0000 0000 0000 0000 000000
2014-06-09 10:10:01,-0.01,0.86,0.00,31.08,35.61,37.83,9.32,40.44,1017.11,2002.26,3079.53,3012.98,3263.97,499.86,483.60,23.59,0000 0000 0000 0000 000000
2014-06-09 10:15:02,0.02,0.86,0.00,31.10,35.62,37.84,9.34,40.51,1017.11,2002.18,3079.01,3012.76,3263.63,499.83,483.54,23.63,0000 0000 0000 0000 000000
2014-06-09 10:20:03,0.03,0.86,0.00,31.12,35.62,37.84,9.33,40.42,1017.11,2002.21,3078.94,3012.27,3263.14,499.97,483.75,23.67,0000 0000 0000 0000 000000
2014-06-09 10:25:04,0.01,0.86,0.00,31.14,35.63,37.83,9.30,40.76,1017.11,2002.14,3078.66,3012.02,3263.01,499.97,483.53,23.71,0000 0000 0000 0000 000000
2014-06-09 10:30:05,0.00,0.87,0.00,31.19,35.65,37.82,9.32,40.39,1017.14,2002.13,3078.13,3012.00,3262.99,500.26,483.77,23.76,0000 0000 0000 0000 000000
2014-06-09 10:35:06,0.03,0.87,0.00,31.24,35.65,37.83,9.24,40.33,1017.12,2002.05,3078.00,3011.59,3262.59,499.84,483.31,23.80,0000 0000 0000 0000 000000
2014-06-09 10:40:07,0.01,0.87,0.00,31.29,35.67,37.83,9.42,40.92,1017.11,2002.00,3077.90,3011.06,3262.05,500.15,483.45,23.84,0000 0000 0000 0000 000000
2014-06-09 10:45:07,0.01,0.87,0.00,31.34,35.69,37.85,9.18,40.52,1017.12,2002.00,3077.51,3011.00,3261.99,499.66,482.86,23.88,0000 0000 0000 0000 000000
2014-06-09 10:50:08,0.02,0.87,0.00,31.40,35.71,37.88,9.36,40.67,1017.11,2002.00,3077.16,3010.93,3261.69,500.09,483.25,23.92,0000 0000 0000 0000 000000
2014-06-09 10:55:09,0.03,0.87,0.00,31.45,35.72,37.91,9.30,40.45,1017.11,2001.96,3076.99,3010.24,3261.05,500.17,483.17,23.96,0000 0000 0000 0000 000000
2014-06-09 11:00:11,0.00,0.87,0.00,31.50,35.75,37.93,9.31,40.55,1017.12,2001.80,3076.56,3009.99,3260.84,499.82,483.12,24.01,0000 0000 0000 0000 000000
2014-06-09 11:05:12,-0.02,0.87,0.00,31.54,35.76,37.97,9.26,40.54,1017.17,2001.34,3076.01,3009.67,3260.14,499.76,482.86,24.05,0000 0000 0000 0000 000000
2014-06-09 11:10:13,0.02,0.87,0.00,31.58,35.79,38.01,9.28,40.48,1017.17,2001.26,3075.73,3009.17,3260.00,500.02,482.87,24.09,0000 0000 0000 0000 000000
2014-06-09 11:15:13,0.01,0.87,0.00,31.61,35.81,38.02,9.29,40.54,1017.19,2001.15,3075.05,3009.00,3259.69,500.05,482.89,24.13,0000 0000 0000 0000 000000
2014-06-09 11:20:14,0.01,0.87,0.00,31.65,35.83,38.04,9.26,40.38,1017.20,2001.04,3074.82,3008.86,3259.05,499.79,482.67,24.17,0000 0000 0000 0000 000000
2014-06-09 11:25:16,0.03,0.87,0.00,31.67,35.85,38.07,9.24,40.30,1017.13,2001.01,3074.20,3008.25,3258.98,499.69,482.49,24.22,0000 0000 0000 0000 000000
2014-06-09 11:30:17,0.01,0.87,0.00,31.70,35.87,38.09,9.30,40.22,1017.12,2001.00,3073.98,3008.01,3258.44,500.06,482.50,24.26,0000 0000 0000 0000 000000
2014-06-09 11:35:18,0.02,0.87,0.00,31.72,35.89,38.11,9.29,40.17,1017.11,2001.00,3073.41,3007.94,3258.02,500.02,482.80,24.30,0000 0000 0000 0000 000000
2014-06-09 11:40:19,0.03,0.88,0.00,31.75,35.91,38.13,9.21,40.17,1017.11,2001.00,3073.00,3007.31,3257.88,499.81,482.57,24.34,0000 0000 0000 0000 000000
2014-06-09 11:45:20,0.03,0.88,0.00,31.75,35.93,38.15,9.35,40.27,1017.11,2000.99,3072.60,3007.02,3257.16,500.04,482.61,24.38,0000 0000 0000 0000 000000
2014-06-09 11:50:21,0.00,0.88,0.00,31.75,35.95,38.17,9.26,40.17,1017.11,2000.97,3072.03,3006.98,3256.99,499.81,482.38,24.43,0000 0000 0000 0000 000000
2014-06-09 11:55:22,0.02,0.88,0.00,31.75,35.96,38.19,9.30,40.13,1017.11,2000.91,3071.90,3006.64,3256.66,500.05,482.83,24.47,0000 0000 0000 0000 000000
2014-06-09 12:00:23,0.00,0.88,0.00,31.71,35.98,38.21,9.27,40.12,1017.11,2000.68,3071.14,3006.06,3256.05,499.95,482.58,24.51,0000 0000 0000 0000 000000
2014-06-09 12:05:25,-0.01,0.88,0.00,31.69,36.00,38.22,9.31,40.46,1017.11,2000.49,3070.98,3006.00,3255.96,500.03,482.72,24.55,0000 0000 0000 0000 000000
2014-06-09 12:10:25,0.04,0.88,0.00,31.66,36.00,38.22,9.21,40.13,1017.11,2000.34,3070.44,3005.74,3255.44,499.59,482.26,24.59,0000 0000 0000 0000 000000
2014-06-09 12:15:27,0.00,0.88,0.00,31.65,36.02,38.24,9.35,40.21,1017.11,2000.12,3070.02,3005.11,3255.03,500.32,483.20,24.64,0000 0000 0000 0000 000000
2014-06-09 12:20:28,-0.00,0.88,0.00,31.63,36.03,38.25,9.34,40.23,1017.11,2000.05,3069.91,3005.00,3254.94,499.88,482.57,24.68,0000 0000 0000 0000 000000
2014-06-09 12:25:29,0.03,0.88,0.00,31.62,36.04,38.26,9.33,40.39,1017.11,2000.02,3069.16,3004.92,3254.31,499.53,482.45,24.72,0000 0000 0000 0000 000000
2014-06-09 12:30:30,0.02,0.88,0.00,31.62,36.05,38.27,9.35,40.27,1017.11,2000.00,3069.00,3004.39,3254.01,500.33,483.39,24.76,0000 0000 0000 0000 000000
2014-06-09 12:35:31,0.01,0.88,0.00,31.62,36.05,38.27,9.31,40.08,1017.11,2000.00,3068.74,3004.02,3253.98,499.85,482.61,24.80,0000 0000 0000 0000 000000
2014-06-09 12:40:33,0.02,0.88,0.00,31.62,36.07,38.28,9.26,40.33,1017.10,2000.00,3068.05,3004.00,3253.50,499.56,482.48,24.84,0000 0000 0000 0000 000000
2014-06-09 12:45:33,0.01,0.88,0.00,31.62,36.08,38.28,9.31,40.35,1017.11,2000.00,3067.97,3003.87,3253.06,500.24,483.08,24.89,0000 0000 0000 0000 000000
2014-06-09 12:50:35,0.04,0.89,0.00,31.62,36.08,38.28,9.27,40.49,1017.20,2000.00,3067.27,3003.18,3252.98,499.92,483.02,24.93,0000 0000 0000 0000 000000
2014-06-09 12:55:36,0.01,0.89,0.00,31.62,36.08,38.29,9.26,40.02,1017.53,2000.00,3067.00,3003.00,3252.68,499.51,482.52,24.97,0000 0000 0000 0000 000000
2014-06-09 13:00:37,0.02,0.89,0.00,31.62,36.10,38.29,9.28,39.92,1017.32,2000.00,3066.61,3002.97,3252.10,499.91,482.97,25.01,0000 0000 0000 0000 000000